Weather History for Altus, OK

Change the Weather History Date:

Monday, October 8, 2012

  Actual Average (KLTS) Record (KLTS)
Temperature  
Mean Temperature 48 °F -  
Max Temperature 64 °F 76 °F 92 °F (2014)
Min Temperature 33 °F 54 °F 32 °F (2012)
Degree Days  
Heating Degree Days 16    
Moisture  
Dew Point 33 °F    
Average Humidity 59    
Maximum Humidity 93    
Minimum Humidity 30    
Precipitation  
Precipitation 0.00 in - - ()
Sea Level Pressure  
Sea Level Pressure 30.15 in    
Wind  
Wind Speed 5 mph (South)    
Max Wind Speed 20 mph    
Max Gust Speed 25 mph    
Visibility 10 miles    
Events      
Averages and records for this station are not official NWS values.
T = Trace of Precipitation, MM = Missing Value Source: NWS Daily Summary

Daily Weather History Graph

Daily Weather History Graph

Search for Another Location

Airport:

Trip Planner

Search our weather history database for the weather conditions in past years. The results will help you decide how hot, cold, wet, or windy it might be!

Date:

Astronomy

Oct. 08, 2012 Rise Set
Actual Time 7:37 AM CDT 7:11 PM CDT
Civil Twilight 7:12 AM CDT 7:36 PM CDT
Nautical Twilight 6:43 AM CDT 8:05 PM CDT
Astronomical Twilight 6:14 AM CDT 8:34 PM CDT
Moon 12:34 AM CDT (10/8) 2:46 PM CDT (10/8)
Length of Visible Light 12h 23m
Length of Day
11h 33m
Last Quarter, 46% of the Moon is Illuminated
Oct 8
Last Quarter
Oct 15
New
Oct 21
First Quarter
Oct 29
Full
Nov 6
Last Quarter

Hourly Weather History & Observations

Time (CDT) Temp. Windchill Dew Point Humidity Pressure Visibility Wind Dir Wind Speed Gust Speed Precip Events Conditions
12:15 AM 41.0 °F - 32.0 °F 70% 30.25 in 10.0 mi Calm Calm - N/A   Clear
12:35 AM 39.2 °F - 32.0 °F 75% 30.25 in 10.0 mi Calm Calm - N/A   Clear
12:55 AM 41.0 °F - 30.2 °F 65% 30.25 in 10.0 mi Calm Calm - N/A   Clear
1:15 AM 37.4 °F - 30.2 °F 75% 30.25 in 10.0 mi Calm Calm - N/A   Clear
1:35 AM 37.4 °F - 32.0 °F 81% 30.25 in 10.0 mi Calm Calm - N/A   Clear
1:55 AM 37.4 °F - 32.0 °F 81% 30.25 in 10.0 mi Calm Calm - N/A   Clear
2:15 AM 39.2 °F - 32.0 °F 75% 30.25 in 10.0 mi Calm Calm - N/A   Clear
2:35 AM 39.2 °F - 32.0 °F 75% 30.25 in 10.0 mi Calm Calm - N/A   Clear
2:55 AM 37.4 °F - 32.0 °F 81% 30.25 in 10.0 mi Calm Calm - N/A   Clear
3:15 AM 35.6 °F - 32.0 °F 87% 30.25 in 10.0 mi Calm Calm - N/A   Clear
3:35 AM 37.4 °F - 32.0 °F 81% 30.24 in 10.0 mi Calm Calm - N/A   Clear
3:55 AM 35.6 °F - 32.0 °F 87% 30.24 in 10.0 mi Calm Calm - N/A   Clear
4:15 AM 35.6 °F - 30.2 °F 81% 30.23 in 10.0 mi Calm Calm - N/A   Clear
4:35 AM 35.6 °F - 30.2 °F 81% 30.23 in 10.0 mi Calm Calm - N/A   Clear
4:55 AM 35.6 °F - 32.0 °F 87% 30.23 in 10.0 mi Calm Calm - N/A   Clear
5:15 AM 33.8 °F - 32.0 °F 93% 30.23 in 10.0 mi Calm Calm - N/A   Clear
5:35 AM 33.8 °F - 32.0 °F 93% 30.22 in 10.0 mi Calm Calm - N/A   Clear
5:55 AM 33.8 °F - 32.0 °F 93% 30.22 in 10.0 mi Calm Calm - N/A   Clear
6:15 AM 35.6 °F - 32.0 °F 87% 30.22 in 10.0 mi Calm Calm - N/A   Clear
6:35 AM 33.8 °F - 32.0 °F 93% 30.23 in 10.0 mi Calm Calm - N/A   Clear
6:55 AM 33.8 °F - 32.0 °F 93% 30.23 in 10.0 mi Calm Calm - N/A   Clear
7:15 AM 33.8 °F - 32.0 °F 93% 30.23 in 10.0 mi Calm Calm - N/A   Clear
7:35 AM 35.6 °F - 32.0 °F 87% 30.22 in 10.0 mi Calm Calm - N/A   Clear
7:55 AM 35.6 °F - 30.2 °F 81% 30.22 in 10.0 mi Calm Calm - N/A   Clear
8:15 AM 35.6 °F 32.8 °F 32.0 °F 87% 30.22 in 10.0 mi SE 3.5 mph - N/A   Clear
8:35 AM 37.4 °F - 32.0 °F 81% 30.23 in 10.0 mi Calm Calm - N/A   Clear
8:55 AM 39.2 °F 37.0 °F 33.8 °F 81% 30.23 in 10.0 mi SSW 3.5 mph - N/A   Clear
9:15 AM 42.8 °F 40.1 °F 33.8 °F 70% 30.23 in 10.0 mi SSW 4.6 mph - N/A   Clear
9:35 AM 44.6 °F 41.4 °F 33.8 °F 66% 30.23 in 10.0 mi SW 5.8 mph - N/A   Clear
9:55 AM 46.4 °F 42.9 °F 35.6 °F 66% 30.24 in 10.0 mi SW 6.9 mph - N/A   Clear
10:15 AM 50.0 °F - 35.6 °F 58% 30.24 in 10.0 mi SSW 8.1 mph - N/A   Clear
10:35 AM 51.8 °F - 35.6 °F 54% 30.24 in 10.0 mi SW 8.1 mph - N/A   Clear
10:55 AM 51.8 °F - 33.8 °F 50% 30.23 in 10.0 mi SSW 10.4 mph - N/A   Clear
11:15 AM 55.4 °F - 32.0 °F 41% 30.22 in 10.0 mi SW 11.5 mph 18.4 mph N/A   Clear
11:35 AM 55.4 °F - 32.0 °F 41% 30.21 in 10.0 mi SSW 10.4 mph 17.3 mph N/A   Clear
11:55 AM 57.2 °F - 32.0 °F 38% 30.21 in 10.0 mi SSW 15.0 mph 19.6 mph N/A   Clear
12:15 PM 59.0 °F - 32.0 °F 36% 30.20 in 10.0 mi South 13.8 mph - N/A   Clear
12:55 PM 59.0 °F - 32.0 °F 36% 30.17 in 10.0 mi South 12.7 mph 18.4 mph N/A   Clear
1:15 PM 60.8 °F - 32.0 °F 34% 30.16 in 10.0 mi South 11.5 mph 20.7 mph N/A   Clear
1:35 PM 60.8 °F - 32.0 °F 34% 30.16 in 10.0 mi South 16.1 mph 19.6 mph N/A   Clear
1:55 PM 62.6 °F - 32.0 °F 32% 30.14 in 10.0 mi South 17.3 mph 21.9 mph N/A   Clear
2:15 PM 62.6 °F - 32.0 °F 32% 30.12 in 10.0 mi South 15.0 mph 25.3 mph N/A   Clear
2:35 PM 62.6 °F - 32.0 °F 32% 30.11 in 10.0 mi South 18.4 mph 25.3 mph N/A   Clear
3:15 PM 64.4 °F - 32.0 °F 30% 30.08 in 10.0 mi South 15.0 mph 23.0 mph N/A   Clear
3:35 PM 64.4 °F - 32.0 °F 30% 30.07 in 10.0 mi SSW 19.6 mph - N/A   Clear
3:55 PM 64.4 °F - 32.0 °F 30% 30.06 in 10.0 mi South 15.0 mph - N/A   Clear
4:15 PM 64.4 °F - 32.0 °F 30% 30.05 in 10.0 mi South 16.1 mph - N/A   Clear
4:35 PM 64.4 °F - 32.0 °F 30% 30.04 in 10.0 mi South 16.1 mph 21.9 mph N/A   Clear
4:55 PM 64.4 °F - 33.8 °F 32% 30.03 in 10.0 mi South 17.3 mph 20.7 mph N/A   Clear
5:15 PM 64.4 °F - 33.8 °F 32% 30.02 in 10.0 mi South 18.4 mph - N/A   Clear
5:35 PM 64.4 °F - 33.8 °F 32% 30.01 in 10.0 mi South 15.0 mph - N/A   Clear
5:55 PM 62.6 °F - 33.8 °F 34% 30.01 in 10.0 mi South 15.0 mph - N/A   Clear
6:15 PM 62.6 °F - 33.8 °F 34% 30.02 in 10.0 mi South 12.7 mph - N/A   Clear
6:35 PM 62.6 °F - 33.8 °F 34% 30.02 in 10.0 mi South 13.8 mph - N/A   Clear
6:55 PM 62.6 °F - 33.8 °F 34% 30.02 in 10.0 mi South 11.5 mph - N/A   Clear
7:15 PM 62.6 °F - 35.6 °F 37% 30.01 in 10.0 mi South 9.2 mph - N/A   Clear
7:35 PM 60.8 °F - 35.6 °F 39% 30.02 in 10.0 mi South 9.2 mph - N/A   Clear
8:15 PM 59.0 °F - 37.4 °F 45% 30.02 in 10.0 mi SSE 6.9 mph - N/A   Clear
8:35 PM 55.4 °F - 37.4 °F 51% 30.02 in 10.0 mi SSE 9.2 mph - N/A   Clear
9:15 PM 55.4 °F - 37.4 °F 51% 30.03 in 10.0 mi SE 8.1 mph - N/A   Clear
9:35 PM 55.4 °F - 37.4 °F 51% 30.03 in 10.0 mi SE 10.4 mph - N/A   Clear
9:55 PM 55.4 °F - 37.4 °F 51% 30.02 in 10.0 mi SSE 12.7 mph - N/A   Clear
10:15 PM 53.6 °F - 37.4 °F 54% 30.03 in 10.0 mi SE 10.4 mph - N/A   Clear
10:35 PM 53.6 °F - 37.4 °F 54% 30.02 in 10.0 mi SSE 11.5 mph - N/A   Clear
10:55 PM 55.4 °F - 37.4 °F 51% 30.03 in 10.0 mi SSE 13.8 mph - N/A   Clear
11:15 PM 53.6 °F - 39.2 °F 58% 30.03 in 10.0 mi SE 12.7 mph - N/A   Clear
11:35 PM 53.6 °F - 39.2 °F 58% 30.02 in 10.0 mi SSE 15.0 mph - N/A   Clear
11:55 PM 53.6 °F - 39.2 °F 58% 30.02 in 10.0 mi SE 13.8 mph - N/A   Clear